Skip Page Navigation
NASA JPL Caltech
NASA Logo - Jet Propulsion Laboratory + View the NASA Portal
+ Center for Near-Earth Object Studies
JPL Home Earth Solar System Stars & Galaxies Technology
JPL Solar System Dynamics
BODIES ORBITS EPHEMERIDES TOOLS PHYSICAL DATA DISCOVERY FAQ SITE MAP
IMPORTANT: The SSD Announcement email list is now available. Major changes are coming in the near future, including possible hostname and/or URL changes. To be notified of such changes, subscribe to this email list.

Please visit this page for more details.


JPL Small-Body Database Browser
Search: [ help ]  
59381 (1999 FZ5)
Classification: Main-belt Asteroid          SPK-ID: 2059381
Ephemeris | Orbit Diagram | Orbital Elements | Mission Design | Physical Parameters | Discovery Circumstances ]

[ show orbit diagram ]
Orbital Elements at Epoch 2459000.5 (2020-May-31.0) TDB
Reference: JPL 21 (heliocentric ecliptic J2000)
 Element Value Uncertainty (1-sigma)   Units 
e .1223894911278372 4.3699e-08  
a 2.35866721022988 1.0579e-08 au
q 2.069991130629929 1.0127e-07 au
i 3.117227078187411 3.8744e-06 deg
node 149.0837476392389 9.2844e-05 deg
peri 27.70978706882231 9.4626e-05 deg
M 280.5523763324592 2.0984e-05 deg
tp 2459292.495959681357
(2021-Mar-18.99595968)
7.8334e-05 TDB
period 1323.117553838627
3.62
8.9012e-06
2.437e-08
d
yr
n .2720846677270424 1.8304e-09 deg/d
Q 2.64734328982983 1.1873e-08 au
  Orbit Determination Parameters
   # obs. used (total)      731  
   data-arc span      10630 days (29.10 yr)  
   first obs. used      1990-10-21  
   last obs. used      2019-11-28  
   planetary ephem.      DE431  
   SB-pert. ephem.      SB431-N16  
   condition code      0  
   norm. resid. RMS      .62673  
   source      ORB  
   producer      Otto Matic  
   solution date      2019-Dec-14 06:09:59  

Additional Information
 Earth MOID = 1.07482 au 
 Jupiter MOID = 2.31295 au 
 T_jup = 3.541 
[ show covariance matrix ]

Ephemeris | Orbit Diagram | Orbital Elements | Mission Design | Physical Parameters | Discovery Circumstances ]

Physical Parameter Table
Parameter Symbol Value Units Sigma Reference Notes
absolute magnitude H 15.8   n/a MPO452974  
diameter diameter 3.942 km 0.077 urn:nasa:pds:neowise_diameters_albedos::2.0[mainbelt] (http://adsabs.harvard.edu/abs/2011ApJ...741...68M)  
geometric albedo albedo 0.065   0.009 urn:nasa:pds:neowise_diameters_albedos::2.0[mainbelt] (http://adsabs.harvard.edu/abs/2011ApJ...741...68M)  

59381 (1999 FZ5)          Discovered 1999-Mar-16 by ODAS at Caussols
Reference: 20030614/Numbers.arcLast Updated: 2004-04-19

Alternate Designations
 1999 FZ5 = 2001 UD80 
Ephemeris | Orbit Diagram | Orbital Elements | Mission Design | Physical Parameters | Discovery Circumstances ]
ABOUT SSD CREDITS/AWARDS PRIVACY/COPYRIGHT GLOSSARY LINKS
FirstGov 2020-Jun-02 21:30 UT
(server date/time)  
NASA Home Page
Site Manager:   Ryan S. Park
Webmaster  Alan B. Chamberlin